Showing default

SEDNA-2, 63153

Orbit data source: Space-Track

SEDNA-2, 63153 is a payload satellite owned by AAC ClydeSpace (US) in SSO that was launched on Tue, 14 Jan 2025 UTC via an FALCON 9 launch vehicle from the Air Force Western Test Range (AFWTR). Payload-class satellites include a variety of spacecraft equipped with specific instruments for various scientific and technological missions. These include communications satellites like Starlink; space stations such as the ISS; scientific satellites like the Hubble; Earth observation satellites from companies like Planet Labs, Umbra, and HawkEye 360; GPS; miniature CubeSats for education and research; and military/defense satellites.

Loading next visibility...
Identifier
63153, 2025-009DQ
Orbit
SSO
Country
Flag of USUS
Related business
Manufacturer
AAC ClydeSpace
Mission
Operational Commercial Communications
Bus & Motor
CUBESAT 1X4U, Unknown motor
Mass
~10 kg wet, ~10 kg dry
Launch date (UTC)
2025-01-14 (9 months ago)
Launch vehicle
FALCON 9
Launch site
Air Force Western Test Range (AFWTR)
Object type
Payload
Rocket body
Debris
Shape & HBR
Box, 0.4 m
Radar Cross Section
0.045 m², Medium (>0.1 m² and < 1m²)

Expand to show TLE details & history
Last TLE update: 6 hours ago

TLE from 6 hours ago
0 SEDNA-2
1 63153U 25009DQ  25290.96913425  .00018649  00000-0  12317-2 0  9995
2 63153  97.4823   5.6943 0010363 170.1890 189.9543 15.07419975 41573
Epoch: 2025-10-17T23:15Z
TLE epoch observation values (Epoch: 2025-10-17T23:15:33.199Z)
Latitude
0.00006°
Longitude
-9.90092°
Altitude
554.226 km
Speed
7.581 km/s
True Right ascension
00h 22m 46s
True Declination
0° 00' 00"
Sunlit
Object was in full shadow at epoch
Visualization orbit readout
Latitude
Unknown
Longitude
Unknown
Altitude
Unknown
Speed
Unknown
Apparent Right ascension
Unknown
Apparent Declination
Unknown
Sunlit
N/A
Visualization observer readout
Local Sidereal Time
00:16:37
Azimuth
Unknown
Elevation
Unknown
Doppler factor
Unknown
Orbital elements
Apogee altitude
548.244 km
Perigee altitude
533.903 km
Semi-major axis
6,919.21 km
Eccentricity
0.00104
Inclination
97.4823°
RAAN
5.6943°
Arg. of periapsis
170.189°
True anomaly
189.9338°
Mean anomaly
189.9543°
Eccentric anomaly
189.94405°
Mean motion
3.77102 °/min
Orbital period
95.46 mins
BSTAR
0.0012317
Loading maneuver chart data...
Computing Atmospheric mass density...
Loading historical data...
Loading historical data...
Loading historical data...
Loading historical data...
Loading historical data...
Loading historical data...
Loading historical data...

Documentation

Showing up to 5 results
|